Flag for U.S.A. Weather past 2 weeks in Knoxville, Tennessee, U.S.A.

Now
38 °F

Overcast.


Feels Like: 38 °F
Forecast: 34 / 52 °F
Wind: No wind

Location: McGhee Tyson Airport

Current Time: Feb 1, 2015 at 12:08:06 AM

Latest Report: Jan 31, 2015 at 10:53 PM


Visibility: 10 mi

Pressure: 30.27 "Hg

Humidity: 53%

Dew point: 22 °F

Location of KnoxvilleLocation

Historic Weather in Knoxville — Graph

°F

Knoxville temperature yesterday

Maximum temperature yesterday: 45 °F (at 3:53 PM)
Minimum temperature yesterday: 21 °F (at 6:53 AM)
Average temperature yesterday: 34 °F

Past Weeks' High & Low Weather Summary

 TemperatureHumidityPressure
High62 °F (Jan 20, 2:53 PM)100% (Jan 23, 7:53 PM)30.42 "Hg (Jan 23, 7:53 PM)
Low21 °F (Jan 31, 6:53 AM)27% (Jan 31, 3:53 PM)29.66 "Hg (Jan 26, 1:53 AM)
Average40 °F65%30.08 "Hg
* Reported Jan 16 10:53 PM — Jan 31 10:53 PM, Knoxville, Weather by CustomWeather, © 2014

Note: Actual official high and low records may vary slightly from our data, if they occured in-between our weather recording intervals... More about our weather records

Advertising

Knoxville weather history for previous 24 hours

 ConditionsComfort  
Time TempWeatherWind HumidityBarometerVisibility
10:53 PM
Jan 31
38 °FOvercast.No wind53%30.27 "Hg10 mi
9:53 PM39 °FOvercast.No wind46%30.28 "Hg10 mi
8:53 PM40 °FPassing clouds.No wind40%30.30 "Hg10 mi
7:53 PM40 °FPassing clouds.3 mph47%30.31 "Hg10 mi
6:53 PM42 °FOvercast.3 mph33%30.32 "Hg10 mi
5:53 PM43 °FOvercast.3 mph32%30.32 "Hg10 mi
4:53 PM44 °FMostly cloudy.No wind32%30.31 "Hg10 mi
3:53 PM45 °FBroken clouds.3 mph27%30.33 "Hg10 mi
2:53 PM44 °FBroken clouds.No wind29%30.34 "Hg10 mi
1:53 PM42 °FBroken clouds.No wind38%30.35 "Hg10 mi
12:53 PM41 °FPartly sunny.3 mph43%30.38 "Hg10 mi
11:53 AM38 °FPartly sunny.8 mph48%30.42 "Hg10 mi
10:53 AM32 °FMore clouds than sun.6 mph64%30.42 "Hg10 mi
9:53 AM30 °FMore clouds than sun.6 mph66%30.42 "Hg10 mi
8:53 AM27 °FMostly cloudy.7 mph72%30.40 "Hg10 mi
7:53 AM24 °FScattered clouds.7 mph77%30.40 "Hg10 mi
6:53 AM21 °FPassing clouds.5 mph85%30.38 "Hg10 mi
5:53 AM23 °FClear.5 mph78%30.39 "Hg10 mi
4:53 AM25 °FClear.7 mph72%30.38 "Hg10 mi
3:53 AM25 °FClear.5 mph72%30.39 "Hg10 mi
2:53 AM27 °FClear.6 mph66%30.41 "Hg10 mi
1:53 AM28 °FClear.6 mph64%30.41 "Hg10 mi
12:53 AM28 °FClear.7 mph64%30.42 "Hg10 mi
Weather by CustomWeather, © 2014

See weather overviewHow to use our weather pages